Home   Weather   Menden (Sauerland)   Past weeks

Flag for Germany Past Weather in Menden (Sauerland), North Rhine-Westphalia, Germany — Yesterday and Last 2 Weeks

Now
66 °F

Scattered clouds.


Feels Like: 66 °F
Forecast: 56 / 59 °F
Wind: 16 mph from Southwest

Location: Dortmund / Wickede

Current Time: Jul 23, 2017 at 4:54:17 pm

Latest Report: Jul 23, 2017 at 4:20 pm


Visibility: N/A

Pressure: 29.92 "Hg

Humidity: 56%

Dew Point: 50 °F

Location of Menden (Sauerland)Location

Past Weather in Menden (Sauerland) — Graph

°F

Menden (Sauerland) Temperature Yesterday

Maximum temperature yesterday: 79 °F (at 3:50 pm)
Minimum temperature yesterday: 63 °F (at 5:20 am)
Average temperature yesterday: 72 °F

High & Low Weather Summary for the Past Weeks

 TemperatureHumidityPressure
High90 °F (Jul 19, 2:50 pm)94% (Jul 10, 7:20 am)30.21 "Hg (Jul 10, 7:20 am)
Low45 °F (Jul 13, 5:20 am)29% (Jul 19, 2:50 pm)29.68 "Hg (Jul 12, 1:20 pm)
Average66 °F63%29.97 "Hg
* Reported Jul 8 3:20 pm — Jul 23 3:20 pm, Menden (Sauerland). Weather by CustomWeather, © 2017

Note: Actual official high and low records may vary slightly from our data, if they occured in-between our weather recording intervals... More about our weather records

Advertising

Menden (Sauerland) Weather History for the Previous 24 Hours

Scroll right to see more
 ConditionsComfort  
Time TempWeatherWind HumidityBarometerVisibility
3:20 pm
Sun, Jul 23
66 °FPassing clouds.18 mph49%29.92 "HgN/A
2:50 pm64 °FPassing clouds.13 mph56%29.92 "HgN/A
2:20 pm68 °FPassing clouds.12 mph53%29.92 "HgN/A
1:50 pm64 °FPassing clouds.15 mph56%29.95 "HgN/A
1:20 pm64 °FScattered clouds.17 mph56%29.92 "HgN/A
12:50 pm64 °FPassing clouds.12 mph56%29.92 "HgN/A
12:20 pm66 °FScattered clouds.15 mph60%29.95 "HgN/A
11:50 am63 °FScattered clouds.15 mph64%29.95 "HgN/A
11:20 am61 °FSunny.14 mph68%29.95 "Hg10 mi
10:50 am61 °FPassing clouds.13 mph72%29.92 "HgN/A
10:20 am61 °FPassing clouds.12 mph72%29.92 "HgN/A
9:50 am59 °FSunny.15 mph72%29.92 "Hg10 mi
9:20 am59 °FSunny.14 mph77%29.92 "Hg10 mi
8:20 am59 °FSunny.16 mph77%29.92 "Hg10 mi
7:50 am59 °FSunny.12 mph82%29.92 "Hg10 mi
7:20 am59 °FSunny.12 mph88%29.89 "Hg10 mi
6:50 am59 °FSunny.10 mph88%29.89 "Hg10 mi
6:20 am57 °FLight rain. Clear.8 mph94%29.86 "HgN/A
5:50 am59 °FRain. Fog.6 mph94%29.86 "Hg2 mi
5:20 am57 °FClear.5 mph88%29.86 "Hg10 mi
9:20 pm
Sat, Jul 22
72 °FSunny.8 mph61%29.86 "Hg10 mi
8:50 pm73 °FSunny.7 mph57%29.83 "Hg10 mi
8:20 pm75 °FSunny.7 mph57%29.86 "Hg10 mi
7:50 pm77 °FPassing clouds.6 mph51%29.86 "HgN/A
7:20 pm77 °FSunny.2 mph47%29.86 "Hg10 mi
6:50 pm77 °FSunny.8 mph47%29.86 "Hg10 mi
6:20 pm77 °FPassing clouds.9 mph47%29.86 "HgN/A
5:50 pm77 °FScattered showers. Scattered clouds.9 mph51%29.86 "HgN/A
5:20 pm77 °FScattered showers. Scattered clouds.9 mph47%29.86 "HgN/A
4:50 pm77 °FSunny.7 mph47%29.86 "Hg10 mi
4:20 pm79 °FPassing clouds.6 mph42%29.86 "HgN/A
Weather by CustomWeather, © 2017

See weather overviewHow to use our weather pages